Nellis AFB, NV

7:17 PM PST on December 08, 2019 (GMT -0800)
Nellis Air Force Base

Weather History for KLSV - September, 2019

Change the Weather History Date:

Thursday, September 5, 2019

  Actual Average Record
Temperature  
Mean Temperature 94 °F -  
Max Temperature 103 °F 95 °F 105 °F (2017)
Min Temperature 85 °F 71 °F 64 °F (2004)
Cooling Degree Days 29    
Growing Degree Days 44 (Base 50)    
Moisture  
Dew Point 53 °F    
Average Humidity 26    
Maximum Humidity 44    
Minimum Humidity 15    
Precipitation  
Precipitation 0.00 in - - ()
Sea Level Pressure  
Sea Level Pressure 29.88 in    
Wind  
Wind Speed 6 mph (SE)    
Max Wind Speed 16 mph    
Max Gust Speed 33 mph    
Visibility 10 miles    
Events Rain , Thunderstorm    
Averages and records for this station are not official NWS values.
T = Trace of Precipitation, MM = Missing Value Source: NWS Daily Summary

Daily Weather History Graph

Daily Weather History Graph

Search for Another Location

Airport or City:

Astronomy

Sep. 05, 2019 Rise Set
Actual Time 6:14 AM PDT 7:02 PM PDT
Civil Twilight 5:48 AM PDT 7:28 PM PDT
Nautical Twilight 5:17 AM PDT 7:59 PM PDT
Astronomical Twilight 4:45 AM PDT 8:30 PM PDT
Moon 1:13 PM PDT (9/5) 11:33 PM PDT (9/5)
Length of Visible Light 13h 39m
Length of Day
12h 47m
Waxing Crescent, 46% of the Moon is Illuminated
Sep 5
Waxing Crescent
Sep 5
First Quarter
Sep 13
Full
Sep 21
Last Quarter
Sep 28
New

Hourly Weather History & Observations

Time (PDT) Temp. Heat Index Dew Point Humidity Pressure Visibility Wind Dir Wind Speed Gust Speed Precip Events Conditions
12:07 AM 91.4 °F - 50.0 °F 24% 29.82 in 10.0 mi NE 4.6 mph - N/A   Mostly Cloudy
12:58 AM 93.9 °F - 51.6 °F 24% 29.83 in 10.0 mi SE 4.6 mph - 0.00 in   Partly Cloudy
1:58 AM 91.9 °F - 51.1 °F 25% 29.82 in 10.0 mi WNW 5.8 mph - N/A   Scattered Clouds
2:58 AM 90.9 °F - 50.2 °F 25% 29.81 in 10.0 mi Calm Calm - N/A   Partly Cloudy
3:58 AM 89.2 °F - 49.8 °F 26% 29.83 in 10.0 mi ENE 6.9 mph - N/A   Mostly Cloudy
5:58 AM 86.7 °F - 50.5 °F 29% 29.87 in 10.0 mi NNW 5.8 mph - N/A   Partly Cloudy
6:58 AM 85.6 °F - 50.5 °F 30% 29.90 in 10.0 mi NNE 9.2 mph - N/A   Scattered Clouds
7:58 AM 90.7 °F 88.3 °F 53.1 °F 28% 29.92 in 10.0 mi Calm Calm - N/A   Clear
8:58 AM 92.1 °F - 52.2 °F 26% 29.95 in 10.0 mi SE 3.5 mph - N/A   Clear
9:58 AM 95.0 °F 92.7 °F 53.6 °F 25% 29.95 in 10.0 mi SE 3.5 mph - N/A   Clear
10:58 AM 97.9 °F - 52.5 °F 22% 29.94 in 10.0 mi Calm Calm - N/A   Clear
11:48 AM 100.4 °F - 50.0 °F 18% 29.93 in 10.0 mi SW 13.8 mph 18.4 mph N/A   Scattered Clouds
11:58 AM 99.9 °F - 50.2 °F 19% 29.91 in 10.0 mi South 16.1 mph 20.7 mph N/A   Partly Cloudy
12:58 PM 100.9 °F - 46.4 °F 16% 29.91 in 10.0 mi SSW 16.1 mph - N/A   Scattered Clouds
1:58 PM 100.0 °F - 47.3 °F 17% 29.88 in 10.0 mi SW 5.8 mph - N/A   Scattered Clouds
2:58 PM 103.1 °F - 46.4 °F 15% 29.86 in 10.0 mi SW 9.2 mph - N/A   Clear
3:58 PM 101.8 °F - 48.7 °F 17% 29.84 in 10.0 mi Calm Calm - N/A   Partly Cloudy
4:58 PM 101.7 °F - 48.6 °F 17% 29.82 in 10.0 mi WSW 8.1 mph - N/A   Mostly Cloudy
5:58 PM 100.6 °F - 49.3 °F 18% 29.83 in 10.0 mi SSE 4.6 mph - N/A   Scattered Clouds
6:10 PM 100.4 °F - 50.0 °F 18% 29.83 in 10.0 mi ESE 4.6 mph - N/A Thunderstorm Thunderstorm
6:25 PM 100.4 °F - 50.0 °F 18% 29.84 in 10.0 mi ESE 13.8 mph 28.8 mph N/A Thunderstorm Scattered Clouds
6:58 PM 94.3 °F 91.8 °F 53.1 °F 25% 29.86 in 10.0 mi ENE 13.8 mph - 0.00 in   Light Drizzle
7:02 PM 95.0 °F - 51.8 °F 23% 29.86 in 10.0 mi East 12.7 mph - N/A   Scattered Clouds
7:50 PM 89.6 °F 90.1 °F 62.6 °F 40% 29.88 in 8.0 mi ESE 15.0 mph 33.4 mph N/A Rain Light Rain
7:58 PM 87.6 °F 88.5 °F 63.5 °F 44% 29.88 in 10.0 mi SE 8.1 mph - 0.00 in Rain Light Rain
8:00 PM 87.8 °F 88.5 °F 62.6 °F 43% 29.88 in 10.0 mi SSE 4.6 mph - N/A   Mostly Cloudy
8:58 PM 92.1 °F 90.2 °F 55.2 °F 29% 29.89 in 10.0 mi SSE 3.5 mph - 0.00 in   Partly Cloudy
9:58 PM 88.2 °F 88.1 °F 61.3 °F 40% 29.91 in 10.0 mi SSE 3.5 mph - N/A   Overcast
10:58 PM 88.9 °F 87.5 °F 56.8 °F 34% 29.91 in 10.0 mi ENE 3.5 mph - N/A   Scattered Clouds
11:58 PM 85.5 °F 84.6 °F 57.6 °F 39% 29.91 in 10.0 mi NNE 5.8 mph - N/A   Partly Cloudy